Regional Weather Roundup
Issued by NWS

Home | Current Version | Previous Version | Graphics & Text | Print | Product List | Glossary On
Versions: 1 2 3 4 5 6 7 8 9 10 11 12 13 14 15 16 17 18 19 20 21 22 23 24 25 26 27 28 29 30 31 32 33 34 35 36 37 38 39 40 41 42 43 44 45 46 47 48 49 50
000
ASUS43 KLOT 180203
RWRIL

ILLINOIS REGIONAL WEATHER ROUNDUP
NATIONAL WEATHER SERVICE CHICAGO/ROMEOVILLE IL
800 PM CST SUN DEC 17 2017

NOTE: "FAIR" INDICATES FEW OR NO CLOUDS BELOW 12,000 FEET WITH NO
SIGNIFICANT WEATHER AND/OR OBSTRUCTIONS TO VISIBILITY.

* THESE STATIONS ARE NOT UNDER NWS QUALITY CONTROL. THEY ALSO MAY NOT
  REPORT WEATHER SUCH AS PRECIPITATION OR FOG.

ILZ001-002-007-009-015-016-024-180300-
NORTHWEST ILLINOIS

CITY           SKY/WX    TMP DP  RH WIND       PRES   REMARKS
MOLINE         CLOUDY    40  39  97 E3        29.98F FOG
STERLING*      CLOUDY    38  32  79 CALM      30.00F
SAVANNA*       CLOUDY    36  35  96 CALM      30.00S FOG
$$

ILZ003-004-008-010-011-017-018-180300-
NORTH CENTRAL ILLINOIS

CITY           SKY/WX    TMP DP  RH WIND       PRES   REMARKS
ROCKFORD       CLOUDY    36  33  89 CALM      30.01R FOG
FREEPORT*      CLOUDY    34  33  97 CALM      30.01S FOG
ROCHELLE*      CLOUDY    36  31  83 CALM      30.01R
$$

ILZ005-006-012>014-019>023-180300-
NORTHEAST ILLINOIS

CITY           SKY/WX    TMP DP  RH WIND       PRES   REMARKS
CHICAGO-OHARE  CLOUDY    42  30  62 SW3       29.99S
CHICAGO-MIDWAY CLOUDY    45  32  60 SW5       30.00S
AURORA         CLOUDY    40  31  70 SW6       30.00S
LANSING*       CLOUDY    42  38  86 SW7       30.02S
JOLIET*        CLOUDY    43  37  78 SW3       30.01S
WAUKEGAN       CLOUDY    35  32  88 CALM      29.98F FOG
DUPAGE AIRPORT CLOUDY    38  32  79 SW5       29.99S WCI  34
KANKAKEE*      CLOUDY    43  37  79 SW9       30.04S
WHEELING       CLOUDY    39  34  82 CALM      30.01S
ROMEOVILLE*    CLOUDY    40  33  76 S5        30.01S
NORTHERLY ISL    N/A     43  33  68 SW3         N/A
$$

LMZ740>746-180300-
SOUTHERN LAKE MICHIGAN

STATION/POSITION SKY/WX   TEMP    WIND        PRES    VSBY  WAVE
                          AIR SEA DIR/SP/G                  HT/PER
                          (F)     (DEG/KT/KT) (MB)    (MI)  (FT/S)
HARRISON CRIB              42     270/  1/  2   N/A
BURNHAM HARBOR             44     250/  2/  4   N/A
CALUMET HARBOR             44     200/  7/ 10 1015.3R
BURNS HARBOR               43     190/ 12/ 14 1016.6S
MICHIGAN CITY              42     170/ 14/ 17   N/A
$$

ILZ025>027-034>036-040-047-049-050-058-095>099-180300-
WEST-CENTRAL ILLINOIS

CITY           SKY/WX    TMP DP  RH WIND       PRES   REMARKS
QUINCY         CLOUDY    45  43  93 SW7       30.02S
MACOMB*        CLOUDY    44  44  97 SW7       30.02S FOG
$$

ILZ028>032-037-038-041>044-048-051>054-059>061-180300-
CENTRAL ILLINOIS

CITY           SKY/WX    TMP DP  RH WIND       PRES   REMARKS
PONTIAC        CLOUDY    45  40  83 S10       30.02F
BLOOMINGTON    CLOUDY    43  39  86 S12       30.02F
DECATUR        CLOUDY    42  38  85 S14       30.05S
PEORIA         CLOUDY    45  41  86 S6        30.01F
LACON*         CLOUDY    44  41  89 SE5       30.00F
LINCOLN*       CLOUDY    45  42  89 S12       30.03S
SPRINGFIELD    CLOUDY    48  41  76 S12       30.03S
TAYLORVILLE    NOT AVBL
$$

ILZ033-039-045-046-055>057-062-063-180300-
EAST-CENTRAL ILLINOIS

CITY           SKY/WX    TMP DP  RH WIND       PRES   REMARKS
CHAMPAIGN      CLOUDY    44  39  82 S14       30.06R
MATTOON        CLOUDY    43  40  89 S9        30.07R
PARIS*         CLOUDY    42  39  88 S9        30.10R
$$

ILZ079-100>102-180300-
SOUTHWEST ILLINOIS

CITY           SKY/WX    TMP DP  RH WIND       PRES   REMARKS
ALTON          CLOUDY    48  43  81 S7        30.07R
BELLEVILLE     CLOUDY    47  41  80 SW7       30.07R
CAHOKIA*       CLOUDY    49  42  77 S7        30.08R
$$

ILZ064>066-069>071-074>076-080>082-084>086-088>090-092>094-180300-
SOUTH-CENTRAL ILLINOIS

CITY           SKY/WX    TMP DP  RH WIND       PRES   REMARKS
CARBONDALE     CLOUDY    44  44 100 S5        30.12R
CAIRO*         CLOUDY    45  43  93 S3        30.14R
EFFINGHAM*     CLOUDY    44  42  92 SE9       30.09F
MARION         CLOUDY    46  45  97 SW5       30.13R
MT. VERNON     CLOUDY    44  43  96 S7        30.11S
CENTRALIA*     CLOUDY    44  44  99 S6        30.09S FOG
SALEM*         CLOUDY    45  43  93 S5        30.10S FOG
METROPOLIS*    CLOUDY    45  43  92 S3        30.15R
$$

ILZ067-068-072-073-078-083-087-091-180300-
SOUTHEAST ILLINOIS

CITY           SKY/WX    TMP DP  RH WIND       PRES   REMARKS
LAWRENCEVILLE  CLOUDY    43  40  89 S7        30.13R
FLORA*         CLOUDY    43  42  97 S6        30.11S FOG
HARRISBURG*    CLOUDY    44  43  96 S3        30.14R
ROBINSON*      CLOUDY    42  40  93 S5        30.13R
CARMI*         CLOUDY    42  42 100 CALM      30.13R FOG
$$

ABBREVIATIONS USED IN REMARKS
   TC - TEMPERATURE IN CELSIUS
  WCI - WIND CHILL INDEX
   HX - HEAT INDEX
  VSB - VISIBILITY
$$





USA.gov is the U.S. government's official web portal to all federal, state and local government web resources and services.